Wind_Speed
12 10 10 12 14 14 12 9 8 9 9 10 12 13 14 15 15 15 15 14 13 13 12 11 10 10 10 9 8 7 6 6 6 6 7 8 8 9 9 9 9 10 11 11 12 13 14 15 16 16 16 16 16 16 16 16 15 15 15 16 16 16 16 15 15 14 14 14 13 12 12 12 13 12 13 13 14 15 17 19 20 22 23 25 27
15 11 9 10 14 16 15 12 10 9 10 11 12 13 13 14 15 16 17 17 16 14 14 13 13 12 12 12 11 10 9 8 8 8 8 8 9 9 9 9 9 10 10 11 12 13 14 15 16 16 16 17 16 16 15 15 15 15 15 15 16 16 16 16 16 16 16 15 15 14 13 12 12 11 11 13 14 15 17 19 22 25 28 31 33
18 14 11 10 13 17 18 18 17 14 13 13 14 13 13 14 16 16 18 19 18 17 15 15 14 14 13 13 13 12 11 10 10 9 9 9 9 9 9 9 9 9 10 11 12 13 13 14 15 15 16 16 16 16 15 15 15 14 14 15 15 16 17 17 18 17 16 16 15 14 13 12 12 12 13 14 16 18 19 22 25 28 30 32 34
22 19 16 15 16 18 19 20 21 21 19 19 18 16 15 16 16 17 18 19 19 19 18 17 16 15 15 15 15 15 14 13 12 11 11 10 10 9 8 8 8 8 9 9 10 11 12 13 13 14 14 15 15 15 15 14 14 13 13 14 15 16 17 18 18 17 17 16 15 14 14 14 14 15 16 17 19 21 23 25 27 29 30 32 33
27 24 21 18 18 19 21 20 21 22 23 23 22 19 17 17 18 18 19 19 20 20 20 20 18 17 17 17 17 17 16 15 14 13 12 12 11 10 9 8 7 7 8 8 8 9 10 11 11 12 12 13 13 13 13 12 12 12 11 11 13 14 16 17 17 17 17 16 16 16 17 17 18 19 20 21 22 24 25 26 28 29 30 31 31
27 26 25 22 20 21 24 24 22 23 24 24 24 21 19 18 18 19 19 19 20 20 20 21 21 20 20 19 19 19 18 17 16 15 14 13 13 11 10 8 7 7 7 7 7 7 8 9 9 9 10 10 11 11 11 10 10 10 9 9 10 12 14 15 16 16 16 17 17 18 19 20 20 21 23 23 23 24 24 25 27 28 28 28 29
29 29 28 28 26 24 26 26 26 26 26 25 25 25 23 21 20 19 20 20 19 19 20 21 22 23 22 21 21 21 20 19 18 17 17 15 14 13 11 9 7 7 6 6 6 6 6 7 7 8 8 8 8 9 9 8 8 8 7 7 8 10 11 12 13 13 14 15 16 17 18 19 20 21 22 22 22 23 23 23 25 26 26 25 25
37 35 33 32 32 30 29 29 30 30 28 26 27 27 26 24 22 20 20 21 20 18 19 21 23 24 24 23 22 22 21 21 19 18 18 17 16 15 13 11 9 7 6 5 5 4 5 5 5 5 6 6 6 7 7 6 6 6 5 5 6 8 9 9 10 11 11 12 13 14 15 16 17 18 19 20 20 20 21 21 21 22 22 22 22
42 42 40 38 36 36 36 35 35 33 29 28 29 29 27 25 24 23 21 21 21 20 19 20 22 24 25 24 23 23 23 22 21 19 19 19 18 17 15 13 11 9 7 5 4 3 3 3 3 3 3 4 4 4 5 5 4 4 4 3 4 5 7 7 8 9 9 9 10 11 12 13 14 13 14 15 16 16 17 17 17 18 18 18 18
46 44 42 41 40 39 40 39 37 35 31 29 30 29 27 26 27 27 25 23 22 22 21 20 20 22 24 25 25 24 24 24 23 21 20 19 19 18 17 16 14 11 9 6 4 3 2 2 3 3 2 2 2 2 3 3 3 2 2 2 2 3 4 5 6 7 7 7 7 8 8 9 10 9 10 10 11 12 12 13 13 13 13 13 14
44 41 41 42 42 41 41 40 39 38 35 32 31 30 30 29 28 29 29 26 24 23 22 21 21 21 23 25 26 26 26 25 25 24 22 21 20 19 19 18 16 14 11 9 6 4 3 3 3 4 4 3 3 2 2 1 1 1 1 1 2 3 3 4 5 5 5 5 5 5 5 5 6 6 6 7 7 8 9 9 9 9 9 9 9
45 45 44 43 42 42 43 42 41 40 39 37 35 33 33 32 31 31 32 30 26 24 24 24 23 22 23 25 26 26 26 26 26 26 25 23 21 21 21 20 19 17 15 12 9 7 5 4 4 5 5 6 6 5 4 3 2 1 1 2 2 3 4 4 5 6 5 5 5 4 4 3 3 3 3 4 4 4 5 5 5 5 5 5 5
49 51 49 44 43 44 45 44 42 41 41 41 40 37 36 35 35 36 36 34 31 29 29 29 27 24 23 24 26 26 26 26 26 27 26 25 23 22 22 22 21 20 18 16 13 10 8 6 5 6 6 7 8 8 7 6 5 4 3 4 4 4 5 6 6 7 7 7 7 6 6 5 5 4 4 3 3 3 3 3 3 2 2 2 2
52 51 47 41 40 44 46 47 45 42 42 42 42 41 40 39 40 40 41 39 37 35 34 33 31 28 25 25 25 26 25 24 25 26 26 26 24 24 24 23 23 23 22 20 18 15 13 10 8 7 7 8 9 10 10 10 8 7 6 6 6 6 7 8 8 8 9 9 9 8 9 9 8 8 7 7 6 6 5 5 4 4 4 4 5
55 51 47 44 43 45 46 46 46 44 43 44 44 44 44 43 43 43 43 42 40 38 37 37 34 31 28 26 25 25 24 22 23 23 24 25 26 26 25 25 25 25 24 24 22 20 17 15 12 10 9 10 10 11 12 13 12 10 9 9 9 8 8 9 10 10 10 10 10 10 10 11 11 11 11 10 10 9 8 7 6 6 7 7 7
60 56 55 56 55 51 46 44 44 43 42 44 47 48 48 47 46 45 44 43 42 41 40 39 37 34 31 29 26 24 22 21 21 22 23 25 26 27 28 28 27 26 25 24 23 22 20 18 16 13 12 11 12 12 13 14 15 14 13 12 12 11 10 11 12 11 11 11 11 11 11 12 13 14 14 14 13 12 11 9 8 8 9 9 10
67 65 65 65 62 58 51 45 41 39 36 37 42 45 47 48 47 46 45 44 44 44 43 42 40 36 34 33 30 26 23 21 22 23 24 25 26 28 29 29 29 28 25 23 22 20 19 17 16 15 14 13 13 14 16 17 17 17 16 15 15 13 12 13 14 13 11 11 11 11 12 12 13 14 15 15 15 15 13 12 11 11 11 11 11
72 72 72 70 68 65 60 50 40 35 31 33 37 39 40 43 45 46 46 46 45 46 46 45 43 40 38 36 33 30 27 24 24 24 25 26 27 28 29 30 29 27 24 22 20 19 18 17 16 15 14 14 14 16 18 19 19 19 18 18 17 15 12 14 16 15 12 11 11 10 11 12 12 13 13 14 15 15 13 12 12 11 10 9 9
71 71 72 71 70 68 64 55 46 42 38 37 39 38 37 38 41 44 47 48 48 48 47 46 45 43 41 38 36 33 30 29 28 28 28 27 27 27 29 29 28 25 22 20 19 19 19 18 18 17 15 14 15 17 19 21 22 20 19 20 19 15 13 16 19 17 14 13 11 9 10 10 10 10 11 12 12 13 12 11 10 10 9 8 7
70 70 70 71 72 70 66 61 56 53 49 45 44 44 42 39 40 43 47 50 50 50 50 48 47 45 43 41 39 37 34 33 32 32 32 30 29 28 29 29 27 25 24 25 24 23 22 20 19 19 17 15 16 17 19 22 24 23 21 21 20 16 15 19 20 17 15 14 11 10 10 10 10 10 10 10 10 10 10 9 10 10 9 8 7
70 70 70 71 73 73 71 68 66 65 62 58 54 52 52 50 48 50 52 53 52 52 51 50 49 47 46 44 43 40 38 37 35 34 34 34 32 32 32 32 30 29 31 33 31 29 27 25 22 19 17 16 16 17 19 21 23 25 25 23 20 17 18 22 22 19 16 15 13 13 12 11 11 11 11 10 11 11 11 10 10 11 10 8 8
70 70 70 71 74 75 74 73 71 71 72 69 62 58 58 58 57 56 56 57 56 55 53 52 50 49 48 47 45 44 42 41 39 38 36 36 35 35 36 36 35 34 35 35 33 30 28 27 26 23 21 21 20 19 19 20 22 25 27 26 23 19 19 22 24 22 19 16 16 16 14 12 13 13 12 11 12 12 11 11 11 11 10 8 8
74 72 71 71 72 76 77 76 74 73 73 71 66 62 61 61 60 58 58 58 59 58 57 55 53 52 51 49 48 48 46 45 43 41 39 38 38 38 38 38 37 37 37 37 35 32 29 29 30 29 29 29 28 26 23 22 22 25 27 28 26 22 21 22 24 24 22 20 19 18 16 15 16 15 14 14 15 15 13 13 13 13 12 10 9
77 77 76 74 73 74 77 78 78 76 75 72 68 65 64 63 62 62 60 59 59 60 60 59 57 56 55 54 53 52 51 49 46 44 43 42 41 41 41 40 37 36 37 38 38 35 34 34 34 33 34 33 32 31 30 27 25 25 27 28 28 26 24 23 24 25 25 24 22 20 18 17 17 17 17 18 18 17 16 16 16 15 14 13 13
81 80 80 79 77 76 77 79 80 80 79 76 72 69 67 66 65 64 64 63 61 60 59 60 60 59 58 58 57 57 56 54 50 47 46 46 44 44 45 44 41 38 38 39 38 36 37 38 37 36 35 34 32 33 34 32 29 27 27 29 29 29 27 25 24 26 28 27 25 23 22 20 19 19 19 20 19 18 17 18 18 17 16 15 16
86 85 83 82 81 80 79 80 82 83 82 81 78 75 72 70 69 68 67 66 65 62 60 59 60 60 59 59 60 60 60 58 54 51 50 49 48 46 45 46 46 45 42 41 40 38 38 38 38 38 38 37 36 36 36 36 34 32 30 30 30 31 30 28 26 28 30 30 28 28 27 25 23 23 23 22 22 20 17 16 17 18 17 17 19
91 89 87 85 84 83 82 83 84 85 85 84 83 80 78 76 74 72 71 70 70 69 65 62 60 60 60 60 61 62 62 62 60 57 54 52 50 47 44 46 48 48 47 45 43 42 40 39 40 40 41 41 40 39 38 38 38 37 35 33 31 32 32 32 31 31 31 32 32 32 32 30 28 27 26 26 25 22 18 16 18 19 17 18 21
95 93 92 90 88 86 86 85 86 87 87 87 86 85 83 81 79 78 76 75 74 74 72 69 66 63 61 61 61 62 63 64 64 63 60 56 53 50 49 49 50 51 50 49 48 46 45 44 43 43 42 43 42 41 40 39 39 40 41 39 36 35 35 36 37 36 34 34 35 36 35 33 31 30 28 27 26 24 21 20 22 23 21 20 23
99 98 96 95 93 91 90 89 88 88 89 89 88 88 87 85 83 82 81 81 80 78 77 76 74 71 68 65 63 63 63 64 65 66 64 60 57 56 56 55 54 54 54 53 52 51 50 49 48 46 45 45 45 44 43 42 42 42 43 43 41 39 38 39 41 41 37 35 37 39 38 35 33 31 29 28 27 26 24 24 26 27 27 26 27
103 102 101 99 98 96 94 93 92 91 91 91 91 90 90 89 87 85 84 83 83 83 82 82 80 78 76 73 70 67 66 65 66 67 66 64 62 62 62 59 56 57 57 56 56 56 54 53 52 50 48 47 45 45 45 45 45 44 45 45 45 42 40 41 44 45 41 37 38 41 40 38 36 34 32 31 30 29 28 28 28 29 30 31 30
106 105 105 104 102 101 99 97 96 94 93 93 93 92 92 91 90 88 86 84 83 84 85 86 85 83 81 80 78 75 72 69 68 68 68 67 66 66 66 64 61 60 59 59 59 59 58 56 55 53 51 49 47 43 41 42 44 46 47 48 48 46 44 44 46 47 44 40 40 41 42 41 39 38 36 35 35 33 32 31 31 32 33 34 34
109 109 108 107 106 105 103 102 100 98 97 96 95 95 94 94 93 92 90 88 87 86 86 88 89 88 86 85 83 81 79 77 74 72 71 70 70 71 70 69 67 65 64 62 62 61 60 59 58 56 54 53 51 49 46 46 47 48 48 49 50 50 49 47 47 47 48 46 44 43 44 44 43 42 41 40 39 39 38 36 35 36 36 37 37
111 111 111 110 109 108 107 105 104 102 100 99 98 98 97 97 97 96 94 93 91 90 88 89 90 91 90 88 87 86 85 83 81 79 77 75 74 74 74 73 72 71 70 67 65 64 64 62 61 60 58 57 56 55 54 52 52 51 51 51 52 53 52 50 48 48 50 51 49 47 47 47 46 46 46 45 45 45 44 42 40 39 39 39 39
114 113 113 112 111 110 110 108 107 106 105 103 102 101 100 100 100 100 98 97 95 93 92 91 91 92 93 92 90 89 89 87 85 84 83 81 79 77 76 75 75 74 74 72 69 68 67 66 65 63 62 61 61 60 58 56 54 54 54 54 54 55 55 53 51 50 52 54 54 52 51 50 50 50 49 49 49 49 48 46 44 42 42 41 40
117 116 115 114 113 112 112 111 110 109 108 107 106 105 104 103 102 102 101 100 98 97 96 95 95 94 94 95 94 93 92 91 89 87 86 85 84 82 80 79 77 76 76 75 74 71 70 69 68 67 65 65 64 63 62 61 58 57 57 57 57 58 58 56 54 53 53 55 57 57 56 55 54 53 52 51 52 52 50 48 46 45 44 44 42
119 119 118 116 115 115 114 113 113 112 111 111 110 109 108 107 105 104 104 103 102 101 100 99 99 97 97 97 97 96 95 94 92 91 89 88 87 86 85 84 82 80 79 78 77 75 74 72 71 70 69 68 68 67 65 64 63 61 60 59 59 59 60 60 58 56 54 55 57 59 59 59 58 56 55 55 55 54 53 51 49 48 48 47 47
122 121 120 119 118 118 117 116 115 115 114 113 112 112 111 110 109 108 106 105 105 104 103 103 102 101 100 100 100 99 99 97 95 94 92 91 90 89 89 88 87 85 83 81 80 79 77 75 74 73 72 71 71 70 68 67 66 65 65 63 62 61 61 62 62 60 58 57 58 60 61 61 61 60 58 58 58 58 57 55 52 51 51 52 52
123 123 122 122 121 121 120 120 118 117 117 116 115 114 114 113 112 111 110 109 107 106 106 106 105 104 104 104 103 102 102 101 99 97 96 94 93 92 92 92 91 90 88 86 83 82 80 79 77 76 75 74 74 74 72 70 69 68 68 68 66 64 63 63 64 64 63 61 60 61 62 63 63 62 61 60 60 60 59 58 56 55 55 56 57
125 125 125 124 124 124 123 123 122 121 120 119 119 118 117 116 115 114 113 112 110 109 108 108 108 108 107 107 106 105 104 104 103 101 100 98 97 96 95 94 94 93 92 90 88 86 85 83 81 79 77 77 77 77 77 76 73 72 71 71 71 69 67 66 66 66 66 65 63 63 63 64 64 64 63 63 62 62 61 60 59 59 58 59 61
126 126 127 126 126 126 126 125 125 124 124 123 122 122 121 120 119 117 116 115 113 112 111 111 111 110 110 109 108 108 107 106 106 105 104 103 102 101 100 98 97 96 95 94 93 91 89 88 87 85 83 80 79 79 80 80 78 77 75 75 74 74 72 70 69 68 68 68 67 66 65 66 66 66 66 66 65 64 63 62 62 61 61 62 64
128 128 128 128 128 128 128 127 127 127 126 126 125 125 124 123 122 121 120 118 117 116 115 114 113 113 112 111 110 110 109 109 108 108 108 107 107 105 104 103 102 100 98 97 96 95 93 92 91 91 89 87 85 83 82 82 82 81 80 79 78 78 77 75 74 72 72 71 71 70 69 69 68 68 69 69 68 68 67 66 65 64 63 64 65
130 130 130 130 130 130 130 130 129 129 128 128 127 127 126 126 125 124 123 123 121 120 119 118 117 117 116 114 113 112 111 110 110 110 110 110 110 110 109 108 106 104 102 100 99 98 97 96 96 95 95 94 92 90 88 87 86 85 84 83 83 82 81 80 79 77 76 75 75 75 74 73 72 71 71 72 72 72 71 71 70 70 69 68 67
131 131 131 132 132 132 131 131 131 131 130 130 129 128 128 128 128 127 127 126 125 124 123 122 121 121 120 118 116 115 114 112 112 111 111 112 112 112 112 112 111 109 107 104 102 101 100 100 100 99 99 98 98 97 96 94 93 91 89 87 87 86 86 85 84 83 81 80 81 80 79 78 77 76 75 75 75 75 75 75 75 75 75 74 72
130 131 132 133 133 133 133 133 132 132 132 132 131 130 130 130 129 129 129 129 128 128 127 126 125 124 123 122 120 119 117 116 115 114 113 113 113 113 113 113 113 113 111 109 107 105 104 103 103 103 103 102 101 101 100 100 100 98 97 94 92 91 90 89 89 88 87 86 85 85 85 83 82 81 80 79 79 79 79 80 80 80 79 79 77
128 130 131 132 133 134 134 134 134 134 134 133 133 133 132 132 131 131 131 131 130 130 129 128 128 127 126 125 124 122 121 120 118 117 116 115 115 114 114 114 114 114 114 113 112 110 109 107 106 106 106 106 105 104 103 103 103 103 103 101 99 97 95 94 93 93 92 91 90 89 89 89 88 87 86 84 83 82 82 83 83 83 83 82 81
126 127 129 131 132 133 134 134 134 134 134 134 134 134 134 134 134 134 133 133 132 131 131 130 130 129 129 128 127 125 124 123 122 121 120 119 118 117 116 115 115 115 114 115 114 114 113 112 110 109 109 109 109 108 107 106 105 105 105 105 104 103 101 99 98 97 97 96 95 94 93 93 92 92 91 89 88 86 85 85 85 85 84 84 84
123 124 126 128 129 131 132 133 133 134 134 134 134 135 135 135 135 135 135 135 135 134 133 132 131 131 130 129 129 127 126 125 125 124 123 122 122 121 120 119 118 117 116 115 115 115 115 115 114 113 112 111 111 111 110 110 109 107 106 106 106 106 106 105 103 101 100 100 100 99 98 98 97 96 95 94 93 91 90 89 88 88 87 87 86
120 121 123 124 126 127 129 130 131 132 132 133 133 134 134 135 135 136 136 136 136 135 135 134 133 132 131 131 130 129 128 127 126 126 125 125 125 124 123 122 121 120 119 118 116 116 116 116 116 116 115 114 113 113 113 113 112 111 110 109 108 108 109 108 108 106 105 104 103 102 102 102 101 100 99 98 97 96 95 94 93 93 92 92 91
116 117 119 121 122 124 125 126 127 129 130 130 131 132 132 133 134 134 135 135 135 135 135 135 134 134 133 132 131 130 129 128 127 127 126 126 126 126 126 125 124 123 122 121 120 118 117 117 117 117 117 116 116 115 115 115 115 115 114 113 112 111 111 111 111 111 110 109 107 106 105 104 104 104 104 103 102 101 100 99 98 98 98 97 97
111 113 114 116 118 119 121 123 124 125 126 127 128 129 130 130 130 131 132 132 133 133 133 134 134 134 134 134 133 132 131 130 129 127 127 127 127 127 127 127 126 125 125 124 123 122 121 119 118 118 118 118 118 117 116 116 116 117 117 117 116 115 114 114 114 114 114 113 113 112 111 109 109 108 107 107 107 106 105 105 104 104 103 103 103
106 107 108 110 111 113 115 117 119 121 122 124 125 126 126 127 127 127 127 128 128 129 130 131 132 133 133 133 133 133 132 131 130 129 128 127 127 128 128 128 128 127 127 127 126 126 124 123 122 121 120 119 119 118 118 118 118 118 118 119 119 119 119 118 118 118 117 117 117 116 115 115 114 113 113 112 112 112 111 110 110 109 108 107 107
Wind_Direction
288 297 292 282 280 285 294 302 313 319 313 301 286 274 270 272 278 281 280 280 281 282 281 275 269 268 271 276 280 284 295 306 317 329 339 350 5 19 27 31 36 42 46 50 52 52 53 54 55 55 54 56 57 57 58 58 56 55 56 58 59 59 60 62 64 65 66 65 63 61 57 54 51 46 43 41 40 42 47 53 60 66 70 70 70
280 291 296 292 291 295 300 305 309 313 313 305 293 282 276 273 276 278 277 276 276 279 280 278 272 268 268 271 275 279 285 293 302 312 322 333 347 5 17 21 25 31 37 43 48 50 52 52 53 53 52 52 52 53 54 54 53 54 55 56 58 59 60 62 64 65 68 70 70 70 68 65 62 56 54 54 56 60 65 68 74 78 80 81 80
268 270 272 280 286 288 294 297 296 298 302 300 292 282 274 271 271 273 274 272 269 268 270 272 271 267 265 265 269 273 278 283 291 299 308 318 330 346 3 12 17 22 28 35 41 47 51 52 52 52 51 50 50 49 49 49 50 53 54 55 58 58 60 62 64 66 69 72 74 76 77 75 73 70 69 70 74 79 82 84 86 87 88 89 89
263 261 261 272 281 280 282 285 286 288 292 293 293 287 277 269 264 265 269 268 265 261 258 260 261 261 261 260 262 266 271 275 281 287 295 304 315 327 346 2 11 16 22 28 34 41 49 52 53 53 53 52 50 48 46 46 47 50 52 56 59 59 60 62 64 68 73 77 81 84 85 85 84 83 83 84 88 91 92 93 94 94 94 95 95
265 263 260 265 271 265 263 271 278 280 284 288 290 289 283 275 268 266 269 270 268 263 257 253 251 250 252 254 257 260 264 269 273 278 285 292 301 312 329 349 4 11 16 23 29 35 45 51 53 54 55 56 55 53 51 48 48 48 50 55 59 60 60 62 64 68 73 77 82 88 90 90 91 92 93 94 95 96 97 99 100 100 100 100 101
264 264 261 263 264 254 253 264 271 269 273 280 283 284 284 279 270 266 269 272 273 270 266 259 251 245 244 248 252 255 258 264 269 274 279 285 292 301 314 332 351 4 10 17 22 26 35 46 53 55 56 57 58 58 58 56 55 54 53 58 61 62 64 66 66 67 70 72 77 86 91 92 95 98 99 99 100 100 101 104 106 106 105 104 104
254 259 263 265 264 254 252 262 266 263 265 272 277 281 283 280 272 265 265 268 271 271 269 266 259 251 246 246 249 252 255 260 266 271 276 281 287 295 304 317 335 351 1 8 14 17 22 33 47 54 55 57 59 60 62 62 62 61 61 64 69 71 72 74 74 72 71 73 78 86 91 93 96 101 104 103 104 105 107 108 110 110 108 107 107
245 252 259 263 263 256 252 256 259 260 263 265 268 276 280 277 273 270 267 266 270 271 267 264 262 258 255 252 252 255 257 260 263 268 274 279 284 290 297 305 316 332 345 353 3 9 10 14 28 44 52 54 57 60 65 67 66 66 68 72 80 83 82 84 85 81 79 80 83 88 91 94 97 102 105 107 107 109 112 113 113 113 111 109 109
247 253 256 258 261 259 255 255 255 258 260 259 261 269 275 272 269 271 272 268 267 269 265 260 259 260 260 261 261 263 263 264 265 268 272 277 281 285 291 295 301 311 322 331 342 352 354 357 6 19 37 47 51 58 64 69 73 75 77 83 91 97 97 100 100 96 91 91 93 95 96 98 101 102 104 108 110 112 115 117 118 118 117 114 112
251 254 255 255 259 259 257 255 254 253 255 254 256 262 268 268 265 267 270 267 262 263 265 261 258 258 259 262 264 267 269 269 269 270 272 275 278 281 285 288 291 295 305 314 321 323 321 322 328 335 350 6 22 44 56 68 76 83 93 110 116 119 116 120 121 117 112 110 110 107 106 106 107 107 106 108 113 116 118 121 122 122 123 121 117
246 250 253 255 257 257 255 253 252 251 251 250 249 251 256 261 263 263 264 262 257 257 261 261 258 255 255 257 259 262 265 268 270 271 272 274 276 279 281 284 288 291 297 306 314 316 310 303 300 306 311 316 320 330 345 20 80 105 136 163 163 163 153 148 148 144 136 137 139 133 125 119 119 120 120 120 123 124 126 128 128 127 128 129 128
242 245 249 250 251 252 252 250 249 250 250 248 246 245 247 252 257 259 259 258 255 254 259 261 259 255 252 253 254 256 258 260 264 268 271 274 276 278 279 281 285 290 295 302 310 313 307 294 286 289 293 297 300 303 302 299 286 251 223 224 216 203 196 184 178 175 171 168 170 171 173 168 157 153 148 143 144 144 144 143 141 141 141 144 147
244 244 244 246 248 249 249 247 247 248 249 248 246 244 244 246 250 254 255 253 253 256 261 263 263 261 257 254 254 256 256 256 258 261 265 269 272 275 278 281 284 287 290 295 301 307 306 296 280 270 274 281 287 291 290 288 282 274 262 250 242 235 230 222 212 204 198 194 195 196 198 201 204 206 211 211 209 206 201 195 194 196 199 196 202
240 240 240 242 244 245 243 243 244 245 246 246 246 245 245 247 249 252 252 250 251 255 259 261 263 263 260 257 256 258 259 257 257 259 262 264 267 269 272 276 279 282 284 287 291 295 298 296 286 270 262 263 270 278 283 282 278 272 268 264 260 255 252 247 239 230 220 213 211 208 207 209 212 215 220 229 236 239 243 245 250 258 267 270 270
233 234 233 233 236 239 239 240 242 244 245 247 248 247 247 248 249 250 249 247 248 252 254 256 259 261 260 258 257 261 265 265 262 261 261 263 264 265 266 267 269 271 274 276 279 282 286 288 287 278 266 257 257 263 270 275 275 269 262 259 258 257 260 260 255 246 238 233 229 223 218 217 217 218 221 228 234 240 246 252 259 268 275 278 279
228 228 228 229 232 237 239 239 241 245 250 252 251 247 246 246 246 246 244 244 247 250 251 252 253 256 258 259 259 262 268 273 270 265 262 260 261 263 264 264 264 265 268 269 271 272 273 275 277 275 268 258 251 252 255 261 264 264 259 254 249 248 252 259 261 256 251 248 244 239 234 229 224 223 225 227 232 238 244 247 251 259 267 272 275
228 229 229 231 234 236 237 238 239 242 249 251 248 245 243 242 242 241 241 243 247 249 249 248 249 253 256 257 258 260 265 272 274 270 265 261 260 262 264 265 265 265 268 271 272 272 270 270 270 269 265 259 252 250 250 251 253 255 255 252 248 244 246 255 261 261 258 257 254 249 247 241 236 231 230 231 233 237 242 248 252 256 264 271 277
229 231 233 234 235 235 236 235 230 229 235 237 235 236 239 240 240 241 242 243 246 248 247 246 248 251 254 255 255 256 259 264 269 268 265 262 261 263 266 268 269 268 269 272 275 277 277 276 275 272 268 263 258 256 254 254 253 251 251 252 250 244 242 251 258 260 263 265 263 259 256 252 247 244 241 240 240 241 244 251 259 262 267 275 281
229 230 231 231 231 232 231 226 218 215 220 224 224 226 233 238 240 243 244 244 244 245 245 245 246 249 251 253 252 252 254 257 261 263 262 261 261 262 265 268 271 273 274 275 275 275 275 274 273 272 271 266 262 261 261 261 261 258 253 252 254 250 243 248 254 256 258 260 262 263 262 261 260 258 253 251 251 250 250 256 265 271 273 278 284
229 229 229 228 227 227 226 221 217 216 218 223 226 224 227 233 236 238 241 242 242 243 243 244 245 246 248 250 249 248 249 251 254 257 259 260 261 262 264 267 270 273 274 272 270 269 269 270 269 269 268 265 261 260 260 262 264 264 261 257 257 254 246 250 256 257 255 255 256 255 255 257 260 262 262 263 265 266 266 267 271 272 273 278 286
230 230 229 227 226 227 225 223 225 227 229 233 234 228 226 229 232 235 239 241 242 243 243 244 245 246 247 249 248 246 246 247 248 251 254 257 259 261 263 265 267 268 267 266 265 265 265 267 269 271 272 271 265 260 259 260 263 265 265 263 260 252 242 247 258 262 259 257 256 252 249 250 253 256 257 260 264 266 267 269 269 269 270 272 277
231 230 230 228 227 228 228 228 230 232 235 238 237 231 228 229 233 236 240 242 243 243 243 244 245 245 247 248 248 247 246 245 245 246 249 252 255 257 260 261 262 261 261 261 262 263 263 263 265 268 271 272 272 267 262 260 260 263 264 264 263 256 244 245 255 262 262 256 251 247 246 249 252 253 256 259 261 261 261 261 262 265 268 269 271
231 231 230 230 229 229 230 231 232 234 235 236 235 232 230 230 232 234 237 240 243 245 246 246 246 246 247 248 249 250 249 247 246 246 247 249 252 254 256 257 257 258 259 261 262 262 262 262 263 264 264 265 267 269 268 264 260 260 262 263 264 262 255 250 254 260 261 254 245 243 244 247 249 252 254 258 262 264 265 264 264 268 274 280 281
232 231 231 231 231 231 231 232 233 234 234 234 233 232 231 230 231 233 234 237 240 243 246 248 248 248 248 248 250 252 252 250 249 249 248 249 251 254 254 253 252 254 258 261 262 262 261 260 261 262 263 263 264 266 268 268 265 261 260 261 261 262 260 256 254 257 259 253 247 246 247 246 247 250 251 254 258 263 267 268 269 273 280 286 288
233 232 232 232 232 232 232 232 232 233 234 233 233 232 231 231 232 233 235 236 237 239 241 244 247 249 249 249 250 251 252 252 251 250 250 250 250 253 254 253 252 252 254 255 257 259 259 258 259 261 263 264 265 266 267 267 266 264 261 259 258 259 258 255 253 255 258 255 251 250 251 248 246 246 247 249 252 257 261 266 271 276 281 286 287
236 234 233 232 232 232 232 232 232 233 234 234 233 233 233 233 233 234 236 237 238 238 237 238 241 244 246 248 249 250 251 252 251 251 251 250 250 252 254 254 253 252 253 252 251 252 254 257 259 261 263 264 264 265 267 267 267 267 264 261 259 259 258 257 255 255 256 255 253 253 253 250 245 243 243 244 249 253 257 262 268 273 277 281 284
238 237 235 234 233 233 232 232 233 234 235 235 235 236 236 236 237 237 238 239 239 240 239 238 237 238 240 243 247 249 251 252 252 252 250 250 249 249 250 251 251 250 251 250 248 247 248 251 254 258 261 263 263 263 264 265 267 267 267 266 264 261 259 257 255 253 251 251 251 252 252 250 246 243 242 243 251 261 267 269 269 269 268 271 277
238 239 238 237 235 234 233 232 233 234 235 236 237 237 238 239 239 240 240 241 241 242 242 241 240 239 239 239 242 244 247 249 251 252 251 250 248 246 245 246 249 250 249 249 247 246 246 248 251 255 258 261 262 263 264 265 267 267 266 266 266 264 260 256 255 252 247 246 247 248 249 248 247 246 246 248 256 268 276 276 275 276 276 275 277
238 239 239 239 238 236 234 233 233 234 235 236 237 238 239 240 241 241 242 243 243 243 244 244 243 242 242 241 240 241 242 244 246 248 250 250 249 247 245 246 247 249 250 249 248 247 246 248 251 254 257 259 261 263 264 266 268 267 264 264 265 265 261 257 255 253 247 241 243 245 246 247 248 249 251 254 259 265 270 270 270 274 277 278 279
237 238 238 239 239 238 237 235 234 234 235 236 237 238 239 240 241 242 242 243 244 244 244 244 244 244 244 244 243 242 241 241 243 244 245 247 248 249 248 247 246 247 249 250 249 248 247 247 249 251 255 258 260 263 266 267 267 265 262 261 263 264 262 258 255 253 248 242 241 244 246 246 248 250 252 254 256 257 258 259 260 263 267 272 275
236 237 238 238 239 240 239 238 237 235 235 235 237 238 239 240 242 242 242 242 243 243 243 243 244 244 244 244 244 244 243 243 243 243 242 243 244 247 249 249 247 247 248 249 249 248 247 247 247 248 251 254 256 258 261 262 262 260 258 259 260 261 262 259 255 253 251 247 243 243 245 246 247 249 251 252 253 253 254 255 258 261 264 268 272
235 236 237 238 239 240 240 240 240 238 237 236 236 237 239 240 241 242 243 242 242 242 242 243 243 244 244 244 244 245 245 244 244 244 244 243 243 245 248 250 250 249 249 249 249 248 248 248 247 247 247 249 251 251 252 255 257 256 255 256 257 259 261 260 255 253 252 250 246 244 244 245 246 247 250 252 254 256 258 258 259 261 264 266 268
235 236 237 238 239 239 240 240 241 241 240 239 238 238 238 239 240 241 242 243 242 242 242 243 244 244 245 245 245 245 245 245 246 246 246 245 244 243 245 247 250 251 250 249 249 249 248 248 248 247 246 247 248 249 250 253 256 255 253 253 255 257 259 260 258 254 251 250 249 247 244 243 244 246 248 251 254 257 260 261 262 263 263 264 265
235 236 237 237 238 239 240 240 241 241 241 241 241 240 239 239 239 240 241 242 242 243 243 243 244 245 245 246 245 245 245 245 246 246 246 246 245 244 244 245 247 249 251 250 249 249 248 247 247 248 247 247 247 248 250 252 255 256 254 252 253 255 257 258 259 257 253 250 250 249 246 245 245 247 249 252 255 257 259 261 263 264 264 263 264
236 236 237 237 238 238 239 240 240 241 241 242 242 242 241 241 240 240 240 241 241 242 243 243 243 244 245 246 246 246 246 245 245 245 246 245 245 245 244 244 244 246 248 250 250 249 248 247 247 247 248 248 248 249 250 251 252 254 254 253 253 254 256 257 258 258 255 251 250 249 249 248 248 249 252 255 258 259 261 262 263 263 263 263 263
237 237 237 237 238 238 239 239 240 241 241 242 242 243 243 243 242 242 241 241 241 241 242 243 243 243 244 245 246 247 247 246 246 245 245 245 245 244 244 244 244 244 245 247 248 248 248 247 246 246 247 248 248 249 250 250 250 251 252 253 253 253 254 255 257 258 256 253 251 250 251 250 250 250 251 254 257 259 261 263 263 263 263 263 264
238 238 238 238 238 238 239 239 240 241 241 242 242 242 243 243 243 243 243 242 242 241 242 242 243 243 244 245 245 246 247 247 247 246 246 246 245 244 244 244 244 244 243 244 245 247 247 247 247 246 247 247 247 248 249 250 250 250 250 252 253 253 253 254 255 256 256 255 253 252 252 252 252 251 251 252 254 257 259 261 263 263 263 264 265
239 239 239 239 239 239 239 240 240 240 241 242 242 242 243 243 244 244 244 243 243 243 242 242 243 243 243 244 244 245 246 247 247 247 247 247 246 245 244 244 243 244 244 243 243 244 245 246 247 247 247 247 247 247 248 249 249 250 250 250 251 252 253 254 253 254 254 255 254 253 253 253 253 253 253 253 254 255 257 258 260 261 263 264 267
240 240 240 240 240 240 240 240 240 240 241 241 242 242 243 243 244 244 244 244 244 244 244 244 244 243 243 243 244 244 245 247 247 248 247 247 247 246 246 245 244 243 244 244 243 243 243 244 245 246 246 247 247 247 247 248 249 250 250 250 250 251 252 253 253 253 253 253 254 254 253 253 253 254 254 254 255 256 256 257 258 259 260 262 265
240 240 241 241 241 241 241 241 241 241 241 242 242 242 243 244 244 244 244 244 244 245 245 245 245 245 244 244 244 244 244 245 246 247 248 248 247 247 247 246 245 244 244 244 244 244 243 243 244 244 245 246 247 247 248 248 249 250 251 250 250 251 251 251 252 252 253 253 254 254 254 253 253 253 254 255 255 256 256 257 257 259 260 261 263
241 241 241 241 242 242 242 242 242 242 242 243 243 243 243 243 244 244 245 245 245 245 245 245 245 246 246 245 245 244 244 244 245 246 247 248 248 248 247 247 246 246 245 244 244 245 244 244 243 243 244 245 246 246 247 248 249 250 251 251 251 251 251 251 251 251 252 253 254 254 254 254 254 254 254 255 255 256 257 257 258 259 260 262 263
243 243 242 242 242 242 242 243 243 244 244 244 244 244 244 244 244 245 245 245 245 245 245 245 246 246 246 246 246 246 246 245 245 245 246 247 247 248 248 248 248 247 246 246 245 245 245 245 245 244 244 244 245 246 247 248 248 249 250 251 252 252 251 251 251 250 251 253 254 255 255 255 256 256 256 256 256 256 257 258 259 261 262 263 263
243 244 244 244 243 243 243 243 243 244 244 244 244 245 245 245 245 245 245 245 245 245 245 246 246 246 246 246 246 246 246 246 246 246 246 246 247 247 248 248 248 248 247 247 246 246 246 246 246 246 245 245 245 245 246 247 248 249 250 250 251 252 252 252 251 251 251 252 253 255 256 256 256 257 258 258 257 257 258 259 260 261 263 264 264
243 244 244 244 244 244 244 244 244 244 244 245 245 245 245 245 246 246 246 246 246 246 246 246 246 246 246 246 246 246 246 247 247 247 246 246 246 247 247 247 248 248 248 247 247 246 246 246 246 246 246 246 246 246 246 247 248 249 250 250 250 251 251 251 252 252 251 251 252 254 255 256 257 257 258 258 259 259 259 259 259 260 261 263 264
243 243 244 244 245 245 245 245 245 245 245 245 245 245 246 246 246 246 246 247 247 247 247 247 246 246 246 246 246 246 247 247 247 247 247 247 247 247 247 247 247 248 248 248 247 247 247 246 246 246 247 247 247 247 247 247 247 248 249 250 250 251 251 251 251 251 252 252 252 252 254 255 257 257 258 259 259 259 260 260 260 260 260 261 262
243 244 244 244 245 245 245 245 245 245 245 245 245 245 246 246 246 246 247 247 247 247 247 247 247 247 247 247 247 247 246 247 247 247 247 247 247 247 248 248 248 248 248 248 248 248 247 247 247 247 247 247 247 247 248 248 248 248 248 249 250 250 251 251 251 251 251 251 252 252 253 254 255 257 258 258 259 260 260 260 261 261 262 262 262
244 245 245 245 245 246 246 246 246 246 246 246 246 246 246 246 246 246 247 247 247 247 248 248 248 248 248 248 247 247 247 247 247 247 247 247 247 247 248 248 248 248 248 248 247 247 248 248 247 247 247 247 247 247 248 248 248 248 249 249 249 250 250 251 251 250 250 251 251 252 252 253 254 255 256 257 258 259 260 261 262 263 264 264 265
245 245 245 246 246 247 247 247 247 248 248 248 247 247 247 247 247 247 247 247 247 247 247 248 248 248 248 248 248 248 247 247 247 247 247 247 247 247 248 248 248 248 248 248 248 247 247 247 248 248 248 247 248 248 248 248 248 248 249 249 249 250 250 251 251 251 251 251 251 251 252 253 254 255 256 256 257 258 259 260 262 263 264 265 266
245 245 246 246 246 247 247 248 248 248 249 249 249 249 248 248 248 248 248 247 247 247 247 248 248 248 248 249 248 248 248 248 247 247 247 247 247 247 248 248 248 248 248 248 248 248 247 247 247 248 248 248 248 248 248 248 249 249 249 249 249 249 250 250 251 252 252 252 252 252 252 253 253 254 255 256 257 258 259 260 261 262 264 265 266
246 246 246 246 246 247 247 248 248 249 249 249 250 250 250 249 249 249 249 249 248 248 248 248 248 248 248 249 249 249 249 248 248 247 247 247 247 248 248 248 248 248 248 248 248 248 248 247 247 247 247 247 248 248 248 248 248 249 249 249 248 249 249 250 251 252 252 253 253 253 253 253 254 255 255 256 257 258 259 260 261 262 263 265 266
247 247 247 247 247 247 247 248 248 249 249 249 250 250 250 250 250 250 250 250 249 249 249 249 249 249 249 249 249 249 249 249 248 248 248 247 247 247 247 248 248 248 248 248 248 248 248 247 247 247 247 247 247 247 248 248 248 248 249 249 249 249 249 249 250 251 252 253 253 254 254 255 255 255 256 257 258 259 259 260 261 262 263 264 265
Height
11018 11019 11019 11020 11020 11021 11021 11022 11022 11023 11024 11024 11024 11024 11025 11025 11025 11026 11027 11027 11028 11028 11028 11027 11027 11026 11026 11026 11027 11026 11026 11025 11025 11024 11024 11024 11023 11022 11021 11020 11019 11018 11017 11017 11016 11016 11015 11014 11013 11012 11011 11010 11009 11009 11008 11008 11008 11007 11007 11006 11006 11005 11004 11004 11003 11002 11001 11001 11000 10999 10999 10998 10997 10996 10995 10995 10994 10993 10993 10992 10991 10990 10990 10989 10988
11017 11018 11019 11019 11020 11020 11020 11020 11021 11021 11022 11023 11023 11023 11024 11024 11024 11024 11025 11026 11026 11027 11027 11026 11026 11026 11026 11025 11026 11026 11026 11025 11025 11024 11024 11024 11024 11023 11022 11021 11020 11019 11019 11018 11017 11017 11016 11016 11015 11014 11013 11012 11011 11010 11010 11009 11008 11008 11007 11007 11007 11006 11005 11005 11004 11003 11002 11002 11001 11000 11000 10999 10998 10997 10997 10996 10996 10995 10994 10994 10993 10992 10992 10991 10990
11016 11017 11017 11018 11018 11019 11019 11020 11020 11020 11021 11021 11022 11022 11022 11022 11022 11022 11022 11023 11024 11025 11025 11025 11025 11025 11025 11024 11024 11024 11025 11025 11025 11024 11024 11024 11024 11024 11023 11022 11021 11020 11020 11019 11018 11018 11017 11017 11016 11015 11014 11013 11012 11012 11011 11010 11010 11009 11009 11008 11008 11008 11007 11006 11005 11004 11004 11003 11002 11001 11001 11000 10999 10999 10998 10997 10997 10996 10996 10995 10995 10994 10994 10993 10993
11014 11015 11015 11016 11016 11016 11017 11018 11019 11020 11020 11020 11020 11020 11020 11020 11020 11020 11020 11020 11021 11022 11022 11022 11022 11022 11023 11023 11023 11023 11023 11024 11024 11024 11024 11023 11024 11024 11024 11023 11022 11021 11020 11020 11019 11019 11018 11018 11017 11016 11016 11015 11014 11013 11013 11012 11012 11011 11010 11010 11010 11009 11008 11008 11007 11006 11005 11004 11004 11003 11002 11001 11001 11000 10999 10999 10998 10998 10997 10997 10997 10996 10996 10996 10995
11011 11013 11013 11013 11013 11012 11013 11015 11018 11019 11019 11018 11018 11019 11019 11019 11019 11019 11019 11019 11019 11020 11020 11020 11020 11020 11020 11020 11021 11021 11022 11022 11023 11023 11023 11023 11023 11024 11024 11024 11023 11022 11022 11021 11020 11020 11019 11019 11018 11018 11017 11016 11016 11015 11015 11014 11013 11013 11012 11012 11012 11011 11010 11010 11009 11008 11007 11006 11006 11005 11004 11003 11002 11002 11001 11000 11000 11000 10999 10999 10998 10998 10998 10998 10997
11008 11009 11010 11011 11011 11010 11011 11014 11016 11017 11017 11017 11017 11017 11017 11018 11018 11018 11018 11018 11018 11019 11019 11019 11019 11018 11018 11018 11018 11019 11020 11021 11021 11022 11022 11022 11022 11023 11024 11024 11024 11023 11023 11022 11021 11021 11021 11020 11020 11019 11019 11018 11017 11017 11017 11016 11015 11015 11014 11013 11013 11013 11012 11011 11011 11010 11009 11008 11008 11007 11006 11005 11004 11003 11003 11002 11002 11002 11001 11001 11000 11000 11000 10999 10999
11007 11007 11007 11009 11010 11010 11011 11013 11014 11014 11015 11015 11015 11016 11016 11017 11017 11017 11017 11017 11017 11017 11018 11019 11019 11018 11016 11016 11016 11017 11018 11019 11020 11020 11021 11021 11022 11022 11023 11023 11024 11023 11023 11023 11022 11022 11021 11021 11021 11020 11020 11019 11019 11019 11018 11018 11017 11017 11016 11015 11015 11015 11014 11013 11013 11012 11011 11010 11010 11009 11009 11008 11007 11006 11005 11005 11004 11004 11003 11003 11002 11002 11002 11001 11001
11005 11006 11006 11007 11008 11009 11010 11011 11011 11011 11013 11013 11013 11013 11014 11015 11016 11016 11016 11016 11016 11016 11016 11017 11017 11017 11016 11015 11015 11015 11016 11018 11019 11019 11020 11020 11021 11021 11022 11023 11023 11023 11023 11023 11023 11022 11022 11021 11021 11021 11021 11020 11020 11020 11020 11019 11019 11018 11018 11017 11017 11016 11016 11015 11015 11014 11013 11013 11012 11012 11011 11010 11009 11008 11008 11007 11006 11006 11005 11005 11004 11004 11003 11003 11003
11002 11004 11005 11005 11005 11006 11007 11008 11008 11008 11010 11011 11010 11011 11012 11013 11014 11014 11014 11014 11014 11014 11014 11014 11014 11015 11015 11015 11015 11015 11015 11016 11017 11018 11019 11019 11020 11020 11021 11022 11022 11023 11023 11023 11023 11023 11022 11022 11021 11021 11021 11020 11020 11020 11020 11020 11020 11019 11019 11019 11018 11018 11018 11017 11016 11016 11015 11015 11014 11013 11013 11012 11011 11011 11010 11009 11008 11008 11007 11007 11006 11006 11005 11005 11004
11000 11003 11005 11004 11004 11004 11004 11005 11005 11005 11007 11008 11008 11008 11009 11010 11011 11012 11013 11013 11012 11012 11012 11011 11012 11012 11013 11013 11014 11014 11014 11015 11016 11017 11018 11019 11019 11020 11020 11021 11021 11022 11022 11023 11023 11023 11022 11022 11021 11021 11021 11021 11020 11020 11020 11020 11020 11020 11020 11020 11019 11019 11019 11018 11018 11017 11017 11016 11016 11015 11014 11014 11013 11012 11012 11011 11010 11010 11009 11009 11008 11008 11007 11006 11006
10998 11001 11003 11002 11002 11001 11000 11001 11001 11001 11003 11005 11005 11006 11006 11007 11008 11010 11010 11010 11010 11009 11009 11009 11010 11010 11010 11010 11011 11012 11013 11014 11015 11016 11017 11018 11019 11020 11020 11020 11021 11021 11022 11022 11023 11023 11022 11022 11021 11021 11020 11020 11020 11020 11020 11020 11019 11019 11019 11020 11020 11020 11020 11019 11019 11019 11018 11018 11017 11016 11016 11015 11014 11013 11013 11012 11012 11011 11011 11010 11009 11009 11008 11008 11007
10995 10996 10996 10997 10998 10997 10996 10996 10997 10998 10999 11001 11002 11003 11003 11004 11005 11006 11007 11007 11007 11007 11007 11007 11007 11007 11007 11007 11008 11009 11010 11012 11013 11014 11015 11017 11018 11019 11020 11020 11021 11021 11021 11021 11022 11022 11022 11022 11021 11021 11020 11020 11020 11019 11019 11019 11019 11019 11019 11019 11019 11019 11019 11019 11019 11019 11019 11019 11018 11017 11017 11016 11015 11015 11014 11013 11012 11012 11011 11011 11010 11010 11009 11008 11008
10989 10988 10989 10992 10993 10992 10991 10992 10993 10994 10995 10997 10999 10999 10999 11000 11001 11002 11003 11004 11004 11004 11004 11005 11005 11005 11005 11005 11005 11006 11008 11009 11010 11012 11013 11015 11017 11018 11019 11020 11020 11020 11021 11021 11021 11021 11021 11022 11021 11021 11020 11019 11019 11019 11018 11018 11018 11018 11018 11018 11018 11018 11018 11019 11019 11019 11019 11019 11018 11018 11018 11017 11016 11015 11014 11014 11013 11012 11011 11011 11010 11010 11009 11009 11008
10983 10982 10985 10988 10988 10986 10986 10986 10987 10989 10990 10992 10994 10994 10995 10996 10997 10998 10999 11000 11000 11001 11001 11002 11003 11003 11003 11003 11003 11004 11005 11007 11008 11009 11011 11013 11014 11016 11017 11018 11019 11019 11019 11019 11019 11019 11020 11020 11020 11020 11020 11019 11019 11018 11017 11017 11017 11017 11017 11016 11016 11017 11017 11017 11018 11018 11018 11018 11018 11018 11018 11017 11016 11015 11015 11014 11013 11012 11011 11011 11010 11010 11009 11008 11008
10976 10976 10979 10981 10980 10979 10979 10981 10982 10984 10985 10987 10988 10990 10991 10992 10993 10994 10994 10995 10996 10997 10998 10999 10999 11000 11000 11001 11001 11002 11003 11005 11006 11007 11009 11010 11012 11013 11014 11014 11015 11015 11016 11016 11017 11017 11017 11017 11018 11018 11019 11018 11018 11017 11016 11016 11015 11015 11015 11015 11015 11015 11015 11015 11015 11016 11016 11017 11017 11017 11017 11016 11016 11015 11014 11013 11013 11012 11011 11011 11010 11009 11008 11008 11007
10967 10968 10968 10970 10971 10973 10974 10976 10977 10979 10981 10982 10984 10986 10986 10987 10988 10989 10990 10991 10992 10993 10994 10995 10996 10997 10997 10998 10999 11000 11002 11003 11004 11005 11007 11008 11009 11010 11010 11011 11011 11011 11012 11012 11013 11014 11014 11014 11015 11015 11016 11016 11016 11016 11015 11014 11013 11013 11012 11012 11012 11012 11013 11013 11013 11013 11014 11015 11015 11015 11015 11015 11014 11014 11013 11012 11012 11011 11011 11010 11010 11009 11008 11007 11006
10958 10959 10960 10962 10965 10968 10969 10971 10973 10976 10978 10980 10981 10982 10982 10983 10984 10985 10985 10986 10987 10988 10990 10991 10992 10993 10994 10995 10996 10998 11001 11002 11003 11004 11005 11006 11006 11007 11006 11007 11007 11007 11008 11010 11010 11011 11011 11011 11012 11012 11013 11013 11014 11013 11013 11012 11011 11011 11010 11010 11010 11010 11010 11011 11010 11010 11011 11012 11013 11013 11013 11012 11012 11012 11011 11011 11011 11010 11010 11009 11009 11008 11007 11006 11005
10950 10952 10953 10956 10959 10962 10964 10966 10968 10971 10974 10975 10977 10978 10978 10978 10979 10980 10981 10982 10983 10984 10986 10987 10988 10989 10990 10991 10993 10995 10998 11001 11001 11002 11002 11003 11003 11004 11003 11003 11004 11004 11006 11007 11009 11010 11010 11010 11010 11010 11010 11011 11012 11012 11011 11010 11010 11010 11009 11008 11008 11008 11009 11009 11008 11008 11008 11009 11010 11010 11011 11010 11010 11010 11010 11009 11009 11009 11008 11008 11007 11006 11005 11004 11004
10942 10944 10946 10949 10952 10955 10957 10960 10961 10963 10965 10967 10971 10973 10974 10974 10975 10976 10976 10977 10978 10979 10981 10982 10984 10985 10986 10988 10989 10991 10994 10997 10998 10998 10998 10999 11000 11000 11000 11000 11001 11002 11004 11005 11007 11007 11008 11008 11008 11008 11008 11008 11009 11009 11009 11009 11008 11008 11009 11008 11007 11007 11008 11007 11006 11006 11006 11007 11007 11008 11009 11008 11008 11008 11008 11007 11007 11006 11006 11005 11005 11004 11003 11003 11002
10933 10936 10938 10941 10944 10947 10950 10952 10954 10955 10957 10960 10964 10967 10969 10970 10971 10971 10971 10971 10973 10974 10976 10977 10979 10980 10982 10984 10985 10986 10988 10991 10993 10993 10994 10995 10996 10997 10997 10998 10998 11000 11001 11002 11003 11004 11004 11004 11004 11005 11005 11005 11005 11005 11006 11005 11005 11006 11007 11007 11007 11007 11007 11005 11004 11004 11004 11005 11006 11006 11006 11007 11007 11006 11006 11006 11005 11005 11004 11003 11003 11002 11001 11001 11001
10924 10927 10930 10933 10936 10939 10941 10944 10946 10948 10951 10953 10956 10960 10962 10963 10964 10965 10965 10966 10968 10969 10971 10972 10974 10976 10978 10979 10980 10981 10982 10984 10986 10988 10989 10990 10992 10993 10994 10995 10996 10997 10998 10997 10998 10999 11000 11000 11001 11002 11003 11003 11003 11003 11003 11002 11002 11002 11003 11004 11005 11007 11006 11004 11003 11003 11003 11003 11004 11004 11004 11004 11005 11005 11005 11005 11004 11003 11002 11002 11001 11000 11000 11000 10999
10916 10919 10922 10925 10927 10930 10932 10935 10938 10941 10944 10946 10949 10952 10954 10956 10958 10959 10959 10961 10962 10964 10965 10967 10969 10972 10973 10974 10975 10976 10977 10978 10980 10982 10984 10986 10987 10988 10989 10991 10992 10993 10993 10992 10992 10993 10995 10996 10997 10999 11000 11000 11000 11000 11000 10999 10999 10998 10998 10999 11001 11004 11005 11004 11003 11002 11002 11002 11002 11002 11001 11002 11002 11003 11003 11003 11003 11002 11001 11000 10999 10998 10998 10998 10998
10907 10910 10913 10915 10918 10921 10924 10927 10930 10933 10936 10939 10942 10944 10946 10949 10950 10952 10954 10955 10956 10958 10959 10961 10963 10966 10968 10969 10969 10970 10971 10972 10975 10977 10980 10982 10982 10983 10983 10985 10986 10988 10988 10988 10988 10990 10991 10992 10993 10994 10995 10995 10996 10996 10996 10996 10996 10995 10995 10996 10998 11000 11001 11002 11002 11002 11001 11000 11000 10999 10999 11000 11000 11000 11001 11001 11000 11000 10999 10998 10997 10997 10996 10996 10996
10898 10901 10904 10906 10909 10912 10915 10918 10921 10925 10928 10931 10934 10936 10938 10940 10942 10944 10946 10948 10950 10951 10953 10954 10956 10959 10962 10963 10964 10964 10965 10967 10970 10973 10975 10977 10977 10978 10978 10979 10981 10983 10983 10983 10984 10986 10986 10987 10987 10988 10989 10990 10991 10992 10992 10992 10992 10992 10992 10993 10994 10996 10997 10999 10999 10999 10999 10998 10997 10997 10997 10997 10998 10999 10999 10999 10998 10997 10996 10996 10995 10995 10995 10994 10994
10887 10891 10894 10897 10900 10904 10906 10909 10913 10916 10919 10921 10924 10926 10928 10931 10933 10935 10937 10940 10942 10945 10947 10948 10949 10952 10955 10956 10957 10958 10959 10961 10965 10968 10969 10971 10973 10973 10974 10975 10976 10978 10978 10978 10979 10981 10981 10981 10982 10983 10984 10985 10987 10988 10988 10989 10989 10989 10989 10990 10991 10992 10993 10995 10996 10996 10996 10995 10995 10994 10994 10995 10996 10996 10996 10996 10995 10994 10994 10993 10993 10993 10993 10993 10992
10876 10880 10884 10888 10891 10894 10898 10901 10904 10906 10909 10911 10914 10916 10919 10922 10924 10926 10929 10932 10935 10938 10940 10942 10943 10946 10947 10948 10950 10951 10953 10955 10959 10961 10963 10965 10967 10969 10970 10971 10972 10972 10973 10973 10974 10975 10976 10977 10978 10979 10979 10981 10982 10984 10984 10985 10986 10986 10986 10987 10988 10989 10990 10992 10993 10993 10992 10992 10992 10991 10991 10991 10992 10992 10991 10992 10991 10991 10992 10993 10992 10992 10992 10991 10990
10864 10868 10873 10878 10881 10885 10888 10891 10893 10896 10898 10901 10904 10907 10910 10912 10915 10917 10920 10923 10926 10929 10932 10934 10937 10939 10940 10942 10943 10944 10946 10949 10951 10953 10955 10957 10960 10963 10965 10965 10965 10966 10967 10968 10968 10969 10971 10972 10973 10974 10975 10976 10977 10978 10979 10980 10982 10982 10983 10984 10985 10985 10987 10987 10987 10988 10989 10988 10988 10987 10986 10986 10986 10986 10987 10987 10987 10988 10990 10991 10991 10990 10990 10990 10988
10852 10856 10861 10866 10870 10874 10877 10880 10883 10885 10888 10891 10894 10897 10900 10903 10905 10908 10911 10914 10917 10920 10923 10926 10929 10931 10932 10934 10936 10937 10939 10941 10942 10944 10946 10949 10953 10956 10956 10956 10958 10959 10960 10961 10962 10963 10964 10965 10967 10969 10971 10971 10972 10973 10974 10975 10977 10978 10979 10980 10980 10981 10982 10982 10982 10983 10984 10983 10982 10981 10980 10980 10981 10982 10983 10984 10985 10985 10987 10988 10987 10986 10987 10987 10985
10839 10843 10848 10852 10857 10861 10864 10868 10872 10875 10877 10880 10883 10886 10890 10893 10896 10899 10901 10904 10908 10912 10915 10917 10919 10922 10924 10926 10928 10930 10932 10934 10934 10935 10938 10941 10944 10946 10947 10949 10951 10952 10953 10955 10956 10957 10958 10959 10960 10963 10965 10967 10968 10968 10969 10970 10971 10972 10973 10974 10975 10976 10976 10976 10975 10975 10976 10978 10978 10977 10976 10976 10977 10979 10980 10982 10983 10983 10984 10984 10983 10982 10982 10982 10981
10826 10830 10834 10838 10843 10847 10851 10855 10860 10864 10867 10869 10872 10876 10880 10883 10886 10889 10892 10895 10898 10901 10904 10906 10909 10912 10914 10916 10919 10921 10923 10926 10927 10928 10930 10933 10935 10936 10938 10941 10944 10945 10946 10948 10949 10950 10951 10953 10954 10956 10959 10961 10962 10964 10965 10966 10966 10966 10966 10968 10969 10970 10970 10970 10968 10968 10971 10974 10974 10973 10972 10973 10973 10975 10976 10977 10978 10978 10979 10979 10978 10978 10977 10977 10976
10813 10817 10821 10824 10828 10833 10837 10842 10847 10851 10855 10859 10862 10865 10869 10872 10875 10878 10881 10884 10887 10890 10892 10894 10898 10901 10903 10905 10908 10911 10914 10917 10920 10921 10922 10925 10926 10927 10928 10932 10935 10937 10939 10941 10942 10943 10945 10947 10948 10950 10952 10954 10956 10959 10961 10961 10960 10959 10959 10961 10962 10963 10964 10962 10962 10963 10967 10969 10969 10968 10968 10969 10969 10969 10970 10970 10971 10971 10972 10973 10974 10973 10973 10972 10972
10800 10803 10806 10810 10815 10820 10824 10829 10833 10838 10843 10847 10851 10855 10857 10860 10863 10866 10868 10872 10875 10878 10880 10883 10886 10889 10891 10894 10898 10902 10904 10907 10910 10913 10915 10917 10918 10918 10919 10922 10926 10929 10931 10933 10934 10936 10938 10940 10941 10943 10945 10946 10948 10951 10953 10953 10952 10952 10952 10954 10955 10956 10956 10956 10957 10959 10961 10962 10963 10964 10964 10964 10964 10964 10964 10964 10965 10965 10966 10967 10968 10968 10968 10968 10967
10785 10789 10793 10797 10802 10807 10811 10815 10820 10825 10829 10834 10838 10842 10845 10848 10850 10853 10856 10859 10863 10866 10869 10872 10875 10877 10880 10883 10887 10890 10893 10897 10900 10904 10906 10907 10908 10909 10911 10913 10916 10919 10921 10924 10927 10929 10931 10932 10933 10935 10937 10938 10940 10942 10944 10945 10945 10945 10946 10946 10947 10948 10949 10950 10951 10953 10954 10955 10956 10957 10957 10958 10958 10958 10958 10958 10959 10958 10959 10960 10961 10962 10962 10961 10961
10771 10775 10780 10784 10789 10794 10798 10802 10807 10811 10815 10819 10823 10827 10831 10834 10837 10840 10844 10848 10851 10855 10858 10861 10863 10866 10868 10871 10875 10878 10882 10886 10890 10893 10895 10896 10898 10900 10903 10905 10907 10909 10911 10915 10918 10920 10923 10924 10925 10927 10929 10930 10931 10934 10936 10937 10938 10938 10939 10939 10940 10940 10942 10943 10945 10946 10947 10948 10949 10949 10950 10951 10952 10952 10952 10952 10952 10951 10952 10953 10954 10956 10956 10955 10955
10756 10761 10766 10771 10776 10781 10785 10789 10793 10796 10801 10805 10809 10812 10816 10820 10824 10827 10831 10835 10840 10843 10846 10848 10850 10853 10856 10859 10862 10866 10869 10874 10878 10882 10884 10885 10888 10890 10893 10895 10898 10900 10902 10904 10907 10910 10913 10915 10917 10918 10920 10922 10924 10926 10928 10929 10931 10932 10932 10932 10933 10934 10935 10936 10938 10938 10939 10940 10941 10942 10943 10944 10945 10946 10947 10946 10945 10944 10945 10946 10948 10949 10949 10949 10949
10742 10747 10752 10758 10763 10767 10771 10775 10778 10782 10786 10790 10794 10798 10801 10805 10810 10814 10818 10822 10826 10830 10832 10834 10837 10841 10845 10847 10850 10853 10856 10860 10865 10869 10872 10874 10877 10879 10881 10884 10887 10889 10891 10894 10896 10898 10901 10904 10907 10910 10912 10914 10916 10917 10919 10921 10923 10924 10924 10925 10926 10927 10927 10929 10930 10931 10931 10932 10932 10934 10935 10937 10938 10940 10941 10940 10939 10938 10939 10940 10941 10942 10942 10942 10943
10728 10733 10738 10743 10748 10752 10756 10760 10764 10768 10771 10775 10779 10783 10787 10790 10795 10799 10804 10808 10812 10816 10819 10820 10823 10828 10832 10834 10836 10840 10843 10847 10851 10856 10859 10862 10864 10867 10869 10872 10874 10877 10880 10883 10885 10887 10890 10893 10897 10900 10902 10904 10906 10908 10910 10912 10914 10915 10916 10917 10918 10919 10920 10921 10922 10923 10924 10924 10924 10925 10927 10928 10930 10932 10933 10933 10932 10932 10933 10934 10934 10934 10935 10935 10935
10713 10718 10723 10728 10732 10737 10741 10745 10749 10753 10757 10761 10764 10768 10771 10775 10779 10784 10788 10793 10797 10802 10805 10807 10810 10814 10817 10820 10823 10827 10830 10834 10838 10843 10846 10849 10851 10853 10856 10859 10862 10864 10868 10872 10875 10877 10880 10883 10886 10889 10892 10894 10896 10898 10901 10903 10904 10906 10907 10909 10910 10911 10912 10913 10914 10915 10916 10916 10916 10917 10918 10919 10920 10923 10925 10925 10925 10925 10926 10927 10928 10928 10928 10927 10927
10698 10702 10707 10711 10716 10721 10725 10729 10733 10737 10741 10745 10749 10752 10755 10759 10763 10768 10773 10778 10783 10787 10791 10793 10795 10799 10802 10805 10809 10814 10818 10821 10825 10828 10832 10834 10837 10839 10842 10845 10849 10852 10856 10859 10863 10867 10869 10872 10875 10878 10881 10883 10886 10888 10890 10892 10895 10896 10898 10899 10901 10902 10903 10904 10905 10906 10907 10908 10908 10908 10909 10910 10911 10913 10915 10916 10917 10918 10919 10920 10920 10921 10921 10920 10920
10682 10686 10690 10694 10698 10703 10707 10712 10716 10720 10725 10729 10733 10736 10740 10744 10748 10752 10758 10763 10767 10772 10776 10779 10781 10783 10786 10791 10795 10800 10804 10808 10811 10814 10817 10819 10822 10825 10827 10830 10834 10839 10843 10846 10851 10855 10858 10861 10863 10866 10869 10872 10875 10877 10879 10881 10884 10886 10888 10889 10891 10892 10893 10895 10896 10897 10898 10899 10899 10899 10900 10901 10902 10904 10906 10907 10908 10909 10910 10911 10911 10912 10913 10913 10912
10663 10668 10672 10676 10680 10685 10689 10694 10698 10703 10708 10712 10717 10721 10725 10729 10733 10737 10742 10747 10751 10756 10760 10763 10766 10768 10771 10776 10781 10785 10790 10794 10797 10800 10802 10804 10806 10809 10812 10815 10819 10825 10830 10834 10838 10842 10846 10849 10852 10854 10857 10860 10863 10865 10868 10870 10872 10875 10877 10879 10880 10882 10883 10884 10886 10887 10889 10890 10890 10890 10891 10891 10893 10895 10896 10897 10899 10900 10901 10901 10902 10903 10904 10905 10904
10645 10650 10654 10658 10663 10667 10672 10676 10681 10686 10691 10695 10700 10705 10709 10713 10717 10721 10725 10729 10734 10738 10742 10746 10750 10752 10755 10760 10765 10770 10774 10779 10782 10785 10787 10789 10791 10794 10797 10800 10804 10810 10816 10821 10825 10829 10833 10836 10839 10841 10844 10847 10851 10854 10856 10858 10860 10863 10865 10867 10869 10871 10872 10874 10875 10877 10879 10880 10881 10881 10882 10882 10883 10885 10886 10887 10889 10890 10891 10892 10892 10893 10894 10895 10896
10627 10631 10635 10639 10643 10649 10654 10660 10664 10668 10673 10677 10682 10687 10692 10696 10700 10703 10707 10711 10715 10719 10724 10729 10732 10736 10739 10744 10749 10754 10759 10763 10766 10769 10772 10775 10777 10780 10783 10785 10789 10794 10801 10807 10812 10816 10819 10822 10824 10828 10831 10834 10837 10841 10843 10845 10848 10850 10853 10855 10857 10859 10861 10863 10864 10866 10869 10870 10870 10871 10872 10873 10874 10875 10876 10877 10878 10880 10881 10881 10882 10883 10884 10884 10885
10608 10612 10616 10620 10624 10629 10635 10641 10646 10650 10655 10659 10664 10669 10673 10678 10681 10685 10688 10692 10696 10701 10706 10710 10715 10719 10723 10727 10733 10738 10743 10747 10750 10753 10757 10760 10762 10765 10768 10771 10774 10778 10784 10791 10796 10801 10805 10807 10810 10813 10817 10820 10823 10827 10830 10832 10835 10837 10840 10842 10845 10847 10849 10851 10852 10854 10857 10859 10860 10860 10861 10863 10864 10865 10866 10867 10868 10870 10870 10870 10871 10872 10873 10874 10875
10589 10593 10597 10602 10605 10610 10615 10620 10625 10631 10636 10640 10645 10650 10654 10659 10663 10666 10669 10673 10678 10683 10687 10692 10696 10701 10705 10710 10716 10721 10726 10730 10733 10737 10740 10744 10746 10750 10753 10756 10759 10763 10768 10774 10780 10785 10789 10793 10796 10799 10802 10805 10808 10811 10815 10818 10821 10824 10826 10829 10832 10834 10836 10838 10840 10842 10844 10846 10848 10849 10850 10851 10852 10853 10854 10856 10857 10859 10859 10859 10860 10861 10862 10863 10864
10572 10576 10580 10583 10587 10591 10595 10600 10605 10610 10615 10621 10626 10631 10635 10639 10643 10647 10650 10654 10659 10663 10668 10673 10677 10682 10686 10691 10697 10703 10708 10713 10717 10720 10724 10727 10730 10733 10737 10740 10744 10748 10752 10757 10763 10768 10773 10777 10781 10784 10787 10790 10793 10796 10800 10803 10806 10810 10813 10816 10818 10820 10822 10824 10827 10829 10830 10832 10834 10837 10838 10839 10840 10841 10842 10844 10845 10847 10847 10847 10848 10849 10851 10851 10852
10556 10559 10563 10566 10569 10573 10577 10581 10586 10590 10595 10601 10606 10611 10615 10619 10623 10628 10631 10635 10639 10644 10648 10653 10658 10662 10667 10672 10677 10683 10690 10695 10699 10703 10707 10710 10713 10717 10720 10724 10728 10731 10735 10740 10746 10751 10756 10760 10765 10769 10773 10775 10778 10781 10785 10788 10791 10794 10798 10802 10804 10806 10807 10810 10812 10815 10816 10818 10821 10823 10825 10826 10827 10828 10830 10831 10832 10833 10834 10835 10835 10836 10837 10838 10839
10539 10543 10546 10549 10553 10556 10560 10564 10568 10572 10576 10581 10586 10591 10595 10599 10604 10608 10611 10615 10620 10625 10630 10634 10638 10643 10647 10652 10658 10663 10670 10675 10680 10685 10688 10692 10696 10699 10703 10706 10710 10714 10719 10724 10729 10734 10739 10744 10749 10753 10758 10761 10764 10767 10770 10772 10776 10779 10783 10786 10789 10791 10793 10795 10797 10799 10801 10804 10807 10809 10811 10812 10814 10815 10816 10818 10819 10820 10821 10822 10822 10823 10824 10825 10826
10522 10526 10530 10533 10536 10540 10543 10547 10550 10554 10557 10562 10566 10570 10575 10579 10584 10588 10592 10596 10601 10606 10611 10616 10620 10624 10628 10633 10638 10644 10649 10655 10661 10666 10670 10674 10678 10681 10685 10689 10693 10698 10702 10707 10711 10716 10722 10727 10732 10737 10741 10745 10749 10752 10755 10758 10761 10764 10768 10771 10774 10776 10778 10780 10782 10784 10786 10789 10792 10794 10796 10798 10800 10801 10802 10804 10806 10807 10808 10809 10809 10810 10811 10812 10813
10505 10509 10513 10517 10520 10524 10527 10530 10533 10537 10540 10543 10547 10550 10554 10559 10564 10568 10572 10577 10582 10587 10592 10597 10602 10606 10610 10614 10619 10624 10629 10635 10641 10647 10652 10656 10660 10663 10666 10671 10675 10680 10684 10688 10692 10697 10703 10709 10714 10719 10723 10727 10732 10736 10740 10743 10745 10748 10751 10755 10758 10761 10763 10765 10767 10768 10770 10773 10776 10778 10781 10784 10785 10787 10788 10790 10791 10793 10794 10795 10796 10796 10797 10798 10799
10489 10493 10497 10502 10506 10509 10512 10515 10518 10521 10523 10526 10529 10532 10535 10539 10544 10549 10553 10558 10563 10568 10573 10577 10582 10586 10590 10595 10600 10605 10610 10615 10621 10627 10633 10637 10640 10643 10647 10651 10655 10660 10664 10668 10673 10678 10683 10689 10695 10700 10705 10710 10715 10719 10723 10726 10728 10731 10734 10737 10741 10744 10747 10750 10752 10753 10755 10757 10759 10762 10764 10767 10770 10772 10773 10775 10776 10778 10780 10781 10782 10783 10784 10785 10785